| time (UTC) | temp F | wind direction | speed MPH | gust MPH | rain 1hr in | rain 24hr in | rain mn in | humidity % | barometer mb |
| 20260504060104 | 37 | 0.0 | 0.0 | 0.00 | 0.00 | 0.00 | 100 | 1024.2 | |
| 20260504050353 | 38 | 0.0 | 0.0 | 0.00 | 0.00 | 0.00 | 100 | 1025.2 | |
| 20260504045421 | 39 | 0.0 | 0.0 | 0.00 | 0.00 | 0.00 | 100 | 1025.2 | |
| 20260504044444 | 40 | 0.0 | 0.0 | 0.00 | 0.00 | 0.00 | 100 | 1025.2 | |
| 20260504043515 | 40 | 0.0 | 0.0 | 0.00 | 0.00 | 0.00 | 100 | 1025.3 | |
| 20260504042540 | 40 | 0.0 | 0.0 | 0.00 | 0.00 | 0.00 | 100 | 1025.0 | |
| 20260504041609 | 40 | 0.0 | 0.0 | 0.00 | 0.00 | 0.00 | 100 | 1024.9 | |
| 20260504040644 | 40 | 0.0 | 0.0 | 0.00 | 0.00 | 0.00 | 100 | 1024.8 | |
| 20260504035702 | 41 | 0.0 | 0.0 | 0.00 | 0.00 | 0.00 | 100 | 1024.8 | |
| 20260504034739 | 41 | 0.0 | 0.0 | 0.00 | 0.00 | 0.00 | 100 | 1024.8 | |
| 20260504033801 | 41 | 0.0 | 0.0 | 0.00 | 0.00 | 0.00 | 100 | 1024.6 | |
| 20260504032827 | 41 | 0.0 | 0.0 | 0.00 | 0.00 | 0.00 | 100 | 1024.5 | |
| 20260504030922 | 42 | 0.0 | 0.0 | 0.00 | 0.00 | 0.00 | 100 | 1023.6 | |
| 20260504025952 | 43 | 0.0 | 0.0 | 0.00 | 0.00 | 0.00 | 100 | 1023.4 | |
| 20260504025021 | 43 | 0.0 | 0.0 | 0.00 | 0.00 | 0.00 | 100 | 1023.2 | |
| 20260504024053 | 44 | 0.0 | 0.0 | 0.00 | 0.00 | 0.00 | 100 | 1022.9 | |
| 20260504023114 | 44 | 0.0 | 0.0 | 0.00 | 0.00 | 0.00 | 100 | 1023.0 | |
| 20260504022143 | 44 | 0.0 | 0.0 | 0.00 | 0.00 | 0.00 | 100 | 1022.9 | |
| 20260504021212 | 45 | 0.0 | 0.0 | 0.00 | 0.00 | 0.00 | 100 | 1022.8 | |
| 20260504020235 | 45 | 0.0 | 0.0 | 0.00 | 0.00 | 0.00 | 100 | 1022.6 | |
| 20260504015312 | 46 | 0.0 | 0.0 | 0.00 | 0.00 | 0.00 | 100 | 1022.5 | |
| 20260504014332 | 47 | 0.0 | 0.0 | 0.00 | 0.00 | 0.00 | 100 | 1022.5 | |
| 20260504013403 | 47 | 0.0 | 0.0 | 0.00 | 0.00 | 0.00 | 100 | 1022.8 | |
| 20260504012429 | 47 | 0.0 | 0.0 | 0.00 | 0.00 | 0.00 | 100 | 1022.8 | |
| 20260504011455 | 48 | 0.0 | 0.0 | 0.00 | 0.00 | 0.00 | 100 | 1022.6 | |
| 20260504010527 | 49 | 0.0 | 0.0 | 0.00 | 0.00 | 0.00 | 100 | 1022.8 | |
| 20260504005555 | 50 | 0.0 | 0.0 | 0.00 | 0.00 | 0.00 | 100 | 1022.9 | |
| 20260504004619 | 50 | 0.0 | 0.0 | 0.00 | 0.00 | 0.00 | 100 | 1022.9 | |
| 20260504003646 | 51 | 0.0 | 0.0 | 0.00 | 0.00 | 0.00 | 100 | 1022.9 | |
| 20260504002711 | 52 | 0.0 | 0.0 | 0.00 | 0.00 | 0.00 | 100 | 1022.9 | |
| 20260504000814 | 54 | 0.0 | 0.0 | 0.00 | 0.00 | 0.00 | 100 | 1022.7 | |
| 20260503235839 | 55 | 0.0 | 0.0 | 0.00 | 0.00 | 0.00 | 100 | 1022.6 | |
| 20260503234904 | 56 | 0.0 | 0.0 | 0.00 | 0.00 | 0.00 | 100 | 1022.4 | |
| 20260503233941 | 57 | 0.0 | 0.0 | 0.00 | 0.00 | 0.00 | 100 | 1022.4 | |
| 20260503232036 | 58 | 0.0 | 0.0 | 0.00 | 0.00 | 0.00 | 100 | 1022.2 | |
| 20260503231100 | 59 | 0.0 | 0.0 | 0.00 | 0.00 | 0.00 | 100 | 1022.1 | |
| 20260503230123 | 59 | 0.0 | 0.0 | 0.00 | 0.00 | 0.00 | 100 | 1022.1 | |
| 20260503225157 | 60 | 0.0 | 0.0 | 0.00 | 0.00 | 0.00 | 100 | 1022.0 | |
| 20260503224216 | 59 | 0.0 | 0.0 | 0.00 | 0.00 | 0.00 | 100 | 1021.8 | |
| 20260503223251 | 60 | 0.0 | 0.0 | 0.00 | 0.00 | 0.00 | 100 | 1021.9 | |
| 20260503222312 | 61 | 0.0 | 0.0 | 0.00 | 0.00 | 0.00 | 100 | 1021.9 | |
| 20260503221346 | 61 | 0.0 | 0.0 | 0.00 | 0.00 | 0.00 | 100 | 1022.1 | |
| 20260503220407 | 61 | 0.0 | 0.0 | 0.00 | 0.00 | 0.00 | 100 | 1022.1 | |
| 20260503215441 | 62 | 0.0 | 0.0 | 0.00 | 0.00 | 0.00 | 100 | 1022.1 | |
| 20260503214505 | 62 | 0.0 | 0.0 | 0.00 | 0.00 | 0.00 | 100 | 1022.1 | |
| 20260503213534 | 62 | 0.0 | 0.0 | 0.00 | 0.00 | 0.00 | 100 | 1022.0 | |
| 20260503212601 | 63 | 0.0 | 0.0 | 0.00 | 0.00 | 0.00 | 100 | 1022.0 | |
| 20260503211634 | 63 | 0.0 | 0.0 | 0.00 | 0.00 | 0.00 | 100 | 1022.0 | |
| 20260503210655 | 65 | 0.0 | 0.0 | 0.00 | 0.00 | 0.00 | 100 | 1021.9 | |
| 20260503205731 | 66 | 0.0 | 0.0 | 0.00 | 0.00 | 0.00 | 100 | 1021.9 | |
| 20260503204754 | 67 | 0.0 | 0.0 | 0.00 | 0.00 | 0.00 | 100 | 1021.8 | |
| 20260503203824 | 68 | 0.0 | 0.0 | 0.00 | 0.00 | 0.00 | 100 | 1021.7 | |
| 20260503202848 | 68 | 0.0 | 0.0 | 0.00 | 0.00 | 0.00 | 100 | 1021.8 | |
| 20260503200944 | 67 | 0.0 | 0.0 | 0.00 | 0.00 | 0.00 | 100 | 1022.1 | |
| 20260503200009 | 67 | 0.0 | 0.0 | 0.00 | 0.00 | 0.00 | 100 | 1022.2 | |
| 20260503195036 | 65 | 0.0 | 0.0 | 0.00 | 0.00 | 0.00 | 100 | 1022.6 | |
| 20260503194105 | 67 | 0.0 | 0.0 | 0.00 | 0.00 | 0.00 | 100 | 1022.4 | |
| 20260503193128 | 67 | 0.0 | 0.0 | 0.00 | 0.00 | 0.00 | 100 | 1022.4 | |
| 20260503192157 | 64 | 0.0 | 0.0 | 0.00 | 0.00 | 0.00 | 100 | 1022.9 | |
| 20260503191223 | 65 | 0.0 | 0.0 | 0.00 | 0.00 | 0.00 | 100 | 1022.9 | |
| 20260503190252 | 65 | 0.0 | 0.0 | 0.00 | 0.00 | 0.00 | 100 | 1023.3 | |
| 20260503185320 | 64 | 0.0 | 0.0 | 0.00 | 0.00 | 0.00 | 100 | 1023.3 | |
| 20260503184348 | 68 | 0.0 | 0.0 | 0.00 | 0.00 | 0.00 | 100 | 1023.0 | |
| 20260503183416 | 65 | 0.0 | 0.0 | 0.00 | 0.00 | 0.00 | 100 | 1023.3 | |
| 20260503182443 | 62 | 0.0 | 0.0 | 0.00 | 0.00 | 0.00 | 100 | 1023.7 | |
| 20260503181510 | 62 | 0.0 | 0.0 | 0.00 | 0.00 | 0.00 | 100 | 1023.8 | |
| 20260503180534 | 62 | 0.0 | 0.0 | 0.00 | 0.00 | 0.00 | 100 | 1023.7 | |
| 20260503175608 | 63 | 0.0 | 0.0 | 0.00 | 0.00 | 0.00 | 100 | 1023.9 | |
| 20260503174630 | 62 | 0.0 | 0.0 | 0.00 | 0.00 | 0.00 | 100 | 1024.2 | |
| 20260503173653 | 61 | 0.0 | 0.0 | 0.00 | 0.00 | 0.00 | 100 | 1024.0 | |
| 20260503172722 | 61 | 0.0 | 0.0 | 0.00 | 0.00 | 0.00 | 100 | 1024.3 | |
| 20260503171758 | 62 | 0.0 | 0.0 | 0.00 | 0.00 | 0.00 | 100 | 1024.2 | |
| 20260503170814 | 61 | 0.0 | 0.0 | 0.00 | 0.00 | 0.00 | 100 | 1024.2 | |
| 20260503160114 | 60 | 0.0 | 0.0 | 0.00 | 0.00 | 0.00 | 100 | 1024.9 | |
| 20260503150356 | 56 | 0.0 | 0.0 | 0.00 | 0.00 | 0.00 | 100 | 1025.4 | |
| 20260503130914 | 51 | 0.0 | 0.0 | 0.00 | 0.00 | 0.00 | 100 | 1025.2 | |
| 20260503120220 | 46 | 0.0 | 0.0 | 0.00 | 0.00 | 0.00 | 100 | 1025.2 | |
| 20260503110459 | 39 | 0.0 | 0.0 | 0.00 | 0.00 | 0.00 | 100 | 1025.6 | |
| 20260503081314 | 40 | 0.0 | 0.0 | 0.00 | 0.00 | 0.00 | 100 | 1024.7 | |
| 20260503080336 | 40 | 0.0 | 0.0 | 0.00 | 0.00 | 0.00 | 100 | 1024.7 | |
| 20260503072526 | 41 | 0.0 | 0.0 | 0.00 | 0.00 | 0.00 | 100 | 1025.0 | |
| 20260503071555 | 41 | 0.0 | 0.0 | 0.00 | 0.00 | 0.00 | 100 | 1024.8 | |
| 20260503070621 | 42 | 0.0 | 0.0 | 0.00 | 0.00 | 0.00 | 100 | 1024.6 |